Lid_Strength_Index
9 10 13 13 12 12 12 13 13 12 13 13 13 12 10 9 10 10 9 10 10 9 8 8 7 6 6 6 5 5 4 3 4 5 5 5 5 5 5 5 5 5 6 6
10 13 12 12 12 13 13 13 13 12 13 13 13 13 10 10 10 10 10 9 9 9 8 8 6 6 5 5 5 4 4 3 4 4 4 3 4 4 4 4 4 5 5 5
12 13 12 12 13 12 13 13 14 14 12 14 13 11 10 10 11 10 10 9 9 8 8 8 7 6 6 6 6 5 4 4 4 4 4 4 4 4 4 4 5 5 5 5
12 11 12 12 14 13 13 14 15 15 14 15 15 14 12 13 12 11 11 10 9 9 8 8 8 7 7 7 6 5 5 5 4 4 4 4 4 5 5 4 4 5 5 5
14 13 13 13 14 13 14 13 14 15 14 15 15 15 11 13 12 11 10 10 10 9 9 8 8 8 7 7 6 5 5 5 5 4 4 4 4 4 4 4 5 5 5 5
13 12 12 13 13 13 13 15 16 15 15 15 20 18 12 12 13 11 11 10 10 10 9 8 8 8 7 6 6 6 6 6 6 5 5 4 4 4 5 5 5 5 6 6
14 14 13 13 13 13 14 13 15 15 16 16 23 19 13 12 12 12 12 11 10 10 9 9 8 8 8 8 7 7 7 7 7 6 6 6 6 5 5 6 6 7 7 7
15 14 14 14 15 15 16 16 16 19 19 17 24 17 14 14 13 12 12 11 10 10 9 9 9 8 8 8 8 8 8 8 8 8 8 7 7 7 7 7 7 7 7 7
16 16 15 15 15 15 17 15 18 22 28 20 17 16 14 13 13 13 13 12 12 11 11 10 9 9 8 9 9 9 9 9 9 9 8 8 8 8 8 8 9 9 8 8
16 16 18 16 15 16 16 17 17 17 20 21 18 20 15 13 13 14 14 14 13 12 11 11 10 9 8 8 9 9 9 10 9 9 9 9 9 8 8 8 8 8 9 9
17 16 16 17 17 17 17 17 18 18 19 19 20 17 12 13 15 16 15 14 14 13 13 12 11 10 10 9 9 9 9 9 9 9 9 9 9 9 9 8 8 8 8 8
15 17 17 15 17 16 17 17 17 18 20 20 21 19 14 16 17 18 15 14 13 13 13 13 12 11 11 10 9 9 9 9 9 9 8 9 9 9 9 9 8 8 8 8
15 17 18 16 19 18 18 17 18 19 19 19 19 17 18 16 14 13 15 14 13 14 13 12 12 11 11 11 10 9 8 9 8 9 9 9 9 9 9 8 8 8 8 8
14 18 17 18 16 18 19 18 18 18 19 18 18 16 14 15 16 15 14 14 14 14 13 12 12 11 11 11 12 11 9 7 8 9 9 9 8 8 8 8 8 8 8 8
15 18 20 19 19 22 20 20 19 20 18 19 17 19 16 16 16 16 16 15 14 14 13 13 12 11 11 12 13 13 11 9 9 9 9 8 8 8 8 8 8 8 8 8
17 19 23 21 21 21 22 19 19 20 19 21 19 19 17 17 17 15 14 14 14 15 14 13 12 12 12 12 12 12 12 11 10 10 9 8 8 8 8 8 8 8 8 8
18 20 21 21 24 23 22 20 19 19 20 19 20 17 18 17 16 16 14 14 15 15 14 14 13 13 12 11 11 12 11 9 9 9 9 9 9 9 10 10 10 9 9 8
22 21 22 22 24 24 17 19 18 18 19 20 19 18 17 16 16 15 13 14 14 14 14 13 12 11 10 9 10 10 11 10 9 9 9 8 8 9 9 9 10 9 8 8
17 19 21 23 25 21 19 20 19 18 20 18 18 18 17 16 15 13 13 13 13 13 12 12 10 9 8 7 6 7 8 7 8 8 8 7 8 9 9 9 9 8 8 8
19 18 19 26 24 23 20 18 16 16 20 18 18 18 18 17 19 17 14 13 13 12 11 11 9 8 7 6 4 5 5 6 6 6 6 6 6 7 8 7 8 7 7 8
21 20 22 21 23 21 18 17 16 20 20 17 17 17 17 18 16 15 13 14 12 12 10 9 8 8 7 6 5 5 4 4 3 4 5 5 6 6 6 7 7 7 7 7
21 22 23 24 23 24 18 17 18 18 17 16 16 16 16 16 15 14 14 13 12 11 9 8 8 7 7 6 6 6 5 3 3 4 5 5 5 6 5 6 6 7 7 8
22 18 19 19 19 18 17 17 16 15 16 16 16 15 15 16 15 15 14 13 11 10 9 8 8 8 7 6 6 6 5 4 4 4 5 5 6 6 6 6 7 7 7 7
20 20 19 19 19 18 17 16 15 15 16 15 15 15 15 16 15 14 13 12 10 9 9 8 8 8 8 6 6 6 6 5 5 6 6 5 7 6 6 7 7 7 7 7
18 19 20 20 19 18 17 16 16 15 15 15 14 15 15 15 15 13 12 11 10 9 9 8 8 8 8 7 7 6 6 6 7 7 6 6 6 7 7 7 7 7 6 6
19 19 19 19 18 18 17 15 15 15 15 15 16 16 15 14 14 12 12 10 9 9 9 9 9 8 8 7 7 7 7 6 7 7 6 6 7 7 7 7 7 6 5 5